Regional Weather Roundup
Issued by NWS

Home | Current Version | Previous Version | Text Only | Print | Product List | Glossary On
Versions: 1 2 3 4 5 6 7 8 9 10 11 12 13 14 15 16 17 18 19 20 21 22 23 24 25 26 27 28 29 30 31 32 33 34 35 36 37 38 39 40 41 42 43 44 45 46 47 48 49 50
000
ASUS43 KLMK 232102
RWRKY
KENTUCKY REGIONAL WEATHER ROUNDUP
NATIONAL WEATHER SERVICE LOUISVILLE KY
500 PM EDT TUE SEP 23 2014

NOTE "FAIR" INDICATES FEW OR NO CLOUDS BELOW 12,000 FEET
WITH NO SIGNIFICANT WEATHER AND/OR OBSTRUCTIONS TO VISIBILITY.

KYZ001>023-026-027-061>063-070>075-232200-
WESTERN AND SOUTH CENTRAL KENTUCKY

CITY           SKY/WX    TMP DP  RH WIND       PRES   REMARKS
PADUCAH        SUNNY     77  47  34 E9        30.21F
HENDERSON      SUNNY     73  43  33 NE9       30.24F
OWENSBORO      SUNNY     75  45  34 NE6       30.24F
HOPKINSVILLE   SUNNY     77  45  32 NE9       30.21F
BOWLING GREEN  SUNNY     77  44  30 NE9       30.23F
GLASGOW        SUNNY     75  43  31 NE6       30.23S
$$

KYZ024-025-028>034-038-045-046-053-232200-
NORTH CENTRAL KENTUCKY

CITY           SKY/WX    TMP DP  RH WIND       PRES   REMARKS
LOUISVILLE/SDF SUNNY     74  44  34 NE6       30.25F
LOUISVILLE/LOU SUNNY     74  45  35 VRB6      30.26F
FORT KNOX      SUNNY     72  46  39 N6        30.24F
$$

KYZ035>037-039>044-047>052-055>060-089>105-232200-
NORTHEAST KENTUCKY

CITY           SKY/WX    TMP DP  RH WIND       PRES   REMARKS
LEXINGTON      SUNNY     73  45  36 NE10      30.27F
COVINGTON      SUNNY     73  42  32 NE7       30.28F
FRANKFORT      SUNNY     72  41  32 VRB7      30.26F
$$

KYZ054-064>069-076>088-106>120-232200-
SOUTHEAST KENTUCKY

CITY           SKY/WX    TMP DP  RH WIND       PRES   REMARKS
JACKSON        SUNNY     69  49  48 CALM      30.28F
LONDON         SUNNY     73  48  41 N8        30.25F
SOMERSET       SUNNY     72  41  33 E7        30.26S
MIDDLESBORO    SUNNY     74  51  44 CALM      30.24S
MONTICELLO     CLEAR     75  49  39 NE6       30.25F
$$




USA.gov is the U.S. government's official web portal to all federal, state and local government web resources and services.